RYR25W LFMT-LFPG

Flight info

Callsign RYR25W
Flight time 1h 10m
Altitude 34000
Route NG DCT MOLEN DCT MTL DCT ETREK/N0443F360 DCT RUSIT/N0437F320 DCT BULOL/N0444F380 DCT LOGNI DCT MOKIP DCT ARFOZ DCT TINIL
Aircraft B738/M-SDE2E3FGHIRWXY/LB1

Departure

Time 2026-05-08 19:32
Airport Montpellier-Méditerranée Airport (LFMT)

Arrival

Time 2026-05-08 20:42
Airport Charles de Gaulle International Airport (LFPG)
Time Latitude Longitude Altitude Speed Heading
2026-05-08 18:59 43.58017 3.95838 16 ft 0 kts 215°
2026-05-08 19:23 43.58017 3.95839 16 ft 2 kts 217°
2026-05-08 19:23 43.58038 3.95859 16 ft 4 kts 212°
2026-05-08 19:23 43.58056 3.95875 17 ft 4 kts 210°
2026-05-08 19:24 43.58070 3.95879 17 ft 4 kts 126°
2026-05-08 19:24 43.58081 3.95857 16 ft 0 kts 124°
2026-05-08 19:27 43.58078 3.95864 18 ft 3 kts 124°
2026-05-08 19:27 43.58050 3.95930 18 ft 13 kts 109°
2026-05-08 19:27 43.58003 3.96060 18 ft 18 kts 124°
2026-05-08 19:27 43.57980 3.96193 16 ft 17 kts 59°
2026-05-08 19:28 43.58032 3.96316 16 ft 15 kts 107°
2026-05-08 19:28 43.57965 3.96454 18 ft 19 kts 125°
2026-05-08 19:28 43.57880 3.96622 17 ft 23 kts 125°
2026-05-08 19:28 43.57780 3.96818 16 ft 27 kts 125°
2026-05-08 19:29 43.57670 3.97042 17 ft 30 kts 124°
2026-05-08 19:29 43.57552 3.97277 18 ft 26 kts 124°
2026-05-08 19:29 43.57455 3.97468 16 ft 25 kts 125°
2026-05-08 19:29 43.57352 3.97671 16 ft 28 kts 125°
2026-05-08 19:30 43.57237 3.97899 16 ft 27 kts 124°
2026-05-08 19:30 43.57182 3.98069 16 ft 16 kts 79°
2026-05-08 19:30 43.57264 3.98166 18 ft 16 kts
2026-05-08 19:30 43.57355 3.98069 19 ft 18 kts 302°
2026-05-08 19:31 43.57458 3.97864 19 ft 44 kts 305°
2026-05-08 19:31 43.57763 3.97254 17 ft 110 kts 304°
2026-05-08 19:31 43.58301 3.96171 43 ft 159 kts 303°
2026-05-08 19:31 43.58957 3.94860 425 ft 177 kts 304°
2026-05-08 19:32 43.59713 3.93380 851 ft 196 kts 309°
2026-05-08 19:32 43.60776 3.92251 1564 ft 199 kts 335°
2026-05-08 19:32 43.62188 3.91889 1895 ft 215 kts
2026-05-08 19:32 43.63632 3.92449 2413 ft 215 kts 29°
2026-05-08 19:33 43.64822 3.93739 2785 ft 226 kts 51°
2026-05-08 19:33 43.65707 3.95601 3006 ft 241 kts 60°
2026-05-08 19:33 43.66564 3.97629 3404 ft 248 kts 61°
2026-05-08 19:33 43.67432 3.99673 3901 ft 252 kts 61°
2026-05-08 19:34 43.68346 4.01802 4237 ft 266 kts 60°
2026-05-08 19:34 43.69320 4.04038 4829 ft 274 kts 60°
2026-05-08 19:34 43.70312 4.06282 5600 ft 274 kts 60°
2026-05-08 19:34 43.71313 4.08530 6361 ft 275 kts 60°
2026-05-08 19:35 43.72322 4.10785 7113 ft 277 kts 60°
2026-05-08 19:35 43.73347 4.13070 7839 ft 281 kts 60°
2026-05-08 19:35 43.74383 4.15375 8578 ft 284 kts 60°
2026-05-08 19:35 43.75570 4.17529 9277 ft 292 kts 41°
2026-05-08 19:36 43.77424 4.18698 10018 ft 299 kts 14°
2026-05-08 19:36 43.79483 4.19314 10532 ft 312 kts 13°
2026-05-08 19:36 43.81690 4.19960 10709 ft 336 kts 13°
2026-05-08 19:36 43.84034 4.20650 11106 ft 350 kts 13°
2026-05-08 19:37 43.86390 4.21353 11742 ft 355 kts 13°
2026-05-08 19:37 43.88858 4.22103 12500 ft 358 kts 12°
2026-05-08 19:37 43.91300 4.22855 13258 ft 361 kts 12°
2026-05-08 19:37 43.93763 4.23621 14000 ft 364 kts 12°
2026-05-08 19:38 43.96217 4.24389 14676 ft 369 kts 12°
2026-05-08 19:38 43.98731 4.25179 15398 ft 372 kts 12°
2026-05-08 19:38 44.01272 4.25980 16112 ft 376 kts 12°
2026-05-08 19:38 44.03837 4.26790 16790 ft 380 kts 12°
2026-05-08 19:39 44.06429 4.27610 17471 ft 384 kts 12°
2026-05-08 19:39 44.09043 4.28437 18107 ft 387 kts 12°
2026-05-08 19:39 44.11687 4.29274 18726 ft 392 kts 12°
2026-05-08 19:39 44.14356 4.30121 19360 ft 395 kts 12°
2026-05-08 19:40 44.17008 4.30963 19966 ft 398 kts 12°
2026-05-08 19:40 44.19718 4.31824 20574 ft 402 kts 12°
2026-05-08 19:40 44.22460 4.32698 21117 ft 406 kts 12°
2026-05-08 19:40 44.25213 4.33576 21695 ft 408 kts 12°
2026-05-08 19:41 44.27998 4.34464 22258 ft 411 kts 12°
2026-05-08 19:41 44.30799 4.35358 22791 ft 414 kts 11°
2026-05-08 19:41 44.33622 4.36260 23283 ft 418 kts 11°
2026-05-08 19:41 44.36470 4.37170 23776 ft 421 kts 11°
2026-05-08 19:42 44.39294 4.38074 24265 ft 424 kts 11°
2026-05-08 19:42 44.42177 4.38998 24752 ft 426 kts 11°
2026-05-08 19:42 44.45079 4.39929 25204 ft 429 kts 11°
2026-05-08 19:42 44.48001 4.40867 25638 ft 432 kts 11°
2026-05-08 19:43 44.50940 4.41811 26058 ft 435 kts 11°
2026-05-08 19:43 44.53894 4.42761 26490 ft 437 kts 11°
2026-05-08 19:43 44.56864 4.43717 26902 ft 439 kts 11°
2026-05-08 19:43 44.59848 4.44679 27302 ft 442 kts 11°
2026-05-08 19:44 44.62815 4.45637 27684 ft 444 kts 11°
2026-05-08 19:44 44.65833 4.46612 28053 ft 446 kts 11°
2026-05-08 19:44 44.68861 4.47592 28421 ft 448 kts 10°
2026-05-08 19:44 44.71903 4.48577 28772 ft 450 kts 10°
2026-05-08 19:45 44.74966 4.49569 29132 ft 452 kts 10°
2026-05-08 19:45 44.78037 4.50566 29467 ft 454 kts 10°
2026-05-08 19:45 44.81124 4.51568 29781 ft 456 kts 10°
2026-05-08 19:45 44.84218 4.52574 30101 ft 457 kts 10°
2026-05-08 19:46 44.87286 4.53573 30403 ft 459 kts 10°
2026-05-08 19:46 44.90401 4.54589 30711 ft 460 kts 10°
2026-05-08 19:46 44.96641 4.56627 31435 ft 459 kts 10°
2026-05-08 19:47 44.99752 4.57645 31839 ft 458 kts 10°
2026-05-08 19:47 45.02847 4.58659 32189 ft 457 kts
2026-05-08 19:47 45.05945 4.59674 32516 ft 457 kts
2026-05-08 19:47 45.08999 4.60676 32847 ft 456 kts
2026-05-08 19:48 45.12091 4.61693 33189 ft 456 kts
2026-05-08 19:48 45.15175 4.62706 33504 ft 455 kts
2026-05-08 19:48 45.18259 4.63724 33818 ft 455 kts 10°
2026-05-08 19:48 45.21303 4.64996 34117 ft 457 kts 15°
2026-05-08 19:49 45.24301 4.66528 34405 ft 458 kts 17°
2026-05-08 19:49 45.27263 4.68135 34685 ft 458 kts 17°
2026-05-08 19:49 45.30253 4.69772 34922 ft 459 kts 17°
2026-05-08 19:49 45.33216 4.71377 35183 ft 458 kts 17°
2026-05-08 19:50 45.36174 4.72957 35467 ft 457 kts 17°
2026-05-08 19:50 45.39158 4.74535 35737 ft 457 kts 16°
2026-05-08 19:50 45.42136 4.76099 35965 ft 457 kts 16°
2026-05-08 19:50 45.45136 4.77670 36012 ft 461 kts 16°
2026-05-08 19:51 45.51168 4.80838 36024 ft 462 kts 16°
2026-05-08 19:51 45.57158 4.84000 36019 ft 456 kts 16°
2026-05-08 19:52 45.63052 4.87114 36032 ft 454 kts 16°
2026-05-08 19:52 45.68998 4.90261 36021 ft 454 kts 16°
2026-05-08 19:53 45.74896 4.93381 36020 ft 453 kts 16°
2026-05-08 19:53 45.80813 4.96515 36019 ft 453 kts 16°
2026-05-08 19:54 45.86675 4.99629 36022 ft 453 kts 16°
2026-05-08 19:54 45.92594 5.02782 36017 ft 454 kts 16°
2026-05-08 19:55 45.98516 5.05942 36022 ft 454 kts 16°
2026-05-08 19:55 46.04455 5.08782 36022 ft 449 kts
2026-05-08 19:56 46.10580 5.09387 36034 ft 439 kts 354°
2026-05-08 19:56 46.16696 5.09282 36017 ft 440 kts 354°
2026-05-08 19:57 46.22817 5.09283 36023 ft 440 kts 355°
2026-05-08 19:57 46.28939 5.09323 36027 ft 440 kts 355°
2026-05-08 19:58 46.35067 5.09841 36029 ft 442 kts 360°
2026-05-08 19:58 46.41146 5.10674 36027 ft 442 kts
2026-05-08 19:59 46.47244 5.11059 36027 ft 433 kts 348°
2026-05-08 19:59 46.53196 5.09903 36031 ft 433 kts 351°
2026-05-08 20:00 46.59278 5.10217 36034 ft 440 kts 360°
2026-05-08 20:00 46.65377 5.11062 36027 ft 441 kts
2026-05-08 20:01 46.71434 5.11947 36026 ft 440 kts 359°
2026-05-08 20:01 46.74463 5.11851 36019 ft 431 kts 345°
2026-05-08 20:01 46.77306 5.10683 36034 ft 421 kts 332°
2026-05-08 20:02 46.82470 5.06769 36033 ft 419 kts 327°
2026-05-08 20:02 46.87639 5.02818 36018 ft 420 kts 328°
2026-05-08 20:03 46.92838 4.98900 36016 ft 421 kts 328°
2026-05-08 20:03 46.98048 4.94975 36026 ft 421 kts 328°
2026-05-08 20:04 47.03212 4.91074 36045 ft 421 kts 328°
2026-05-08 20:04 47.08422 4.87127 36052 ft 421 kts 328°
2026-05-08 20:05 47.13634 4.83168 36035 ft 422 kts 328°
2026-05-08 20:05 47.18838 4.79208 36043 ft 421 kts 328°
2026-05-08 20:06 47.24001 4.75270 36055 ft 420 kts 328°
2026-05-08 20:06 47.29185 4.71306 36051 ft 420 kts 328°
2026-05-08 20:07 47.34369 4.67333 36047 ft 420 kts 328°
2026-05-08 20:07 47.39544 4.63357 36034 ft 419 kts 328°
2026-05-08 20:08 47.44673 4.59411 36047 ft 418 kts 328°
2026-05-08 20:08 47.47225 4.57449 36020 ft 406 kts 328°
2026-05-08 20:08 47.49686 4.55558 36018 ft 392 kts 328°
2026-05-08 20:09 47.52064 4.53726 36013 ft 378 kts 328°
2026-05-08 20:09 47.54354 4.51958 36016 ft 365 kts 327°
2026-05-08 20:09 47.56569 4.50246 36019 ft 352 kts 327°
2026-05-08 20:09 47.58708 4.48590 36014 ft 343 kts 327°
2026-05-08 20:10 47.62941 4.45285 36061 ft 353 kts 327°
2026-05-08 20:10 47.67367 4.41826 36053 ft 366 kts 327°
2026-05-08 20:11 47.71890 4.38302 36032 ft 366 kts 327°
2026-05-08 20:11 47.76335 4.34844 36026 ft 356 kts 327°
2026-05-08 20:12 47.80729 4.31410 36035 ft 358 kts 327°
2026-05-08 20:12 47.85113 4.27971 36030 ft 359 kts 327°
2026-05-08 20:13 47.89544 4.24491 36036 ft 361 kts 327°
2026-05-08 20:13 47.93986 4.20998 36033 ft 361 kts 327°
2026-05-08 20:14 47.98434 4.17495 36020 ft 359 kts 327°
2026-05-08 20:14 48.00636 4.15759 35467 ft 359 kts 327°
2026-05-08 20:14 48.02869 4.13992 34493 ft 367 kts 327°
2026-05-08 20:15 48.05108 4.12222 34087 ft 366 kts 327°
2026-05-08 20:15 48.07368 4.10426 33603 ft 380 kts 327°
2026-05-08 20:15 48.09730 4.08548 33119 ft 389 kts 327°
2026-05-08 20:15 48.12120 4.06651 32614 ft 387 kts 327°
2026-05-08 20:16 48.14475 4.04788 32112 ft 380 kts 327°
2026-05-08 20:16 48.16791 4.02955 31597 ft 373 kts 327°
2026-05-08 20:16 48.19069 4.01147 31092 ft 368 kts 327°
2026-05-08 20:16 48.21323 3.99352 30581 ft 370 kts 327°
2026-05-08 20:17 48.23601 3.97529 29970 ft 382 kts 327°
2026-05-08 20:17 48.25984 3.95620 29498 ft 394 kts 328°
2026-05-08 20:17 48.28436 3.93655 29008 ft 405 kts 328°
2026-05-08 20:17 48.30951 3.91642 28515 ft 414 kts 328°
2026-05-08 20:18 48.33520 3.89585 28019 ft 420 kts 328°
2026-05-08 20:18 48.36097 3.87524 27464 ft 419 kts 328°
2026-05-08 20:18 48.38670 3.85463 26830 ft 418 kts 328°
2026-05-08 20:18 48.41231 3.83407 26203 ft 417 kts 328°
2026-05-08 20:19 48.43779 3.81358 25574 ft 415 kts 328°
2026-05-08 20:19 48.46314 3.79317 24948 ft 412 kts 328°
2026-05-08 20:19 48.48804 3.77309 24318 ft 410 kts 329°
2026-05-08 20:19 48.51308 3.75288 23709 ft 408 kts 329°
2026-05-08 20:20 48.53675 3.72990 23057 ft 402 kts 316°
2026-05-08 20:20 48.55473 3.69816 22448 ft 396 kts 302°
2026-05-08 20:20 48.56936 3.66318 21835 ft 394 kts 300°
2026-05-08 20:20 48.58383 3.62815 21212 ft 392 kts 301°
2026-05-08 20:21 48.59843 3.59354 20588 ft 390 kts 301°
2026-05-08 20:21 48.61311 3.55921 19966 ft 388 kts 301°
2026-05-08 20:21 48.62776 3.52506 19334 ft 386 kts 301°
2026-05-08 20:21 48.64229 3.49116 18706 ft 383 kts 301°
2026-05-08 20:22 48.65676 3.45738 18090 ft 381 kts 301°
2026-05-08 20:22 48.67108 3.42384 17466 ft 378 kts 301°
2026-05-08 20:22 48.68528 3.39053 16843 ft 376 kts 301°
2026-05-08 20:22 48.69465 3.36854 16429 ft 374 kts 301°
2026-05-08 20:23 48.71319 3.32496 15605 ft 370 kts 301°
2026-05-08 20:23 48.72704 3.29236 15233 ft 367 kts 301°
2026-05-08 20:23 48.74083 3.25984 15110 ft 366 kts 301°
2026-05-08 20:23 48.75463 3.22730 15053 ft 367 kts 301°
2026-05-08 20:24 48.76818 3.19530 14678 ft 355 kts 301°
2026-05-08 20:24 48.78147 3.16386 13884 ft 353 kts 301°
2026-05-08 20:24 48.79460 3.13276 13409 ft 344 kts 301°
2026-05-08 20:24 48.80759 3.10194 13290 ft 353 kts 301°
2026-05-08 20:25 48.82092 3.07029 13180 ft 359 kts 301°
2026-05-08 20:25 48.83435 3.03835 13081 ft 358 kts 301°
2026-05-08 20:25 48.84780 3.00722 13059 ft 357 kts 304°
2026-05-08 20:25 48.86405 2.97863 13062 ft 359 kts 312°
2026-05-08 20:26 48.88145 2.95133 13058 ft 360 kts 312°
2026-05-08 20:26 48.89875 2.92376 13055 ft 360 kts 311°
2026-05-08 20:26 48.91576 2.89594 13058 ft 359 kts 310°
2026-05-08 20:26 48.93007 2.86531 13051 ft 355 kts 291°
2026-05-08 20:27 48.93603 2.82919 13064 ft 352 kts 272°
2026-05-08 20:27 48.93523 2.79210 13071 ft 352 kts 264°
2026-05-08 20:27 48.93310 2.75507 13060 ft 350 kts 264°
2026-05-08 20:27 48.93087 2.71912 12947 ft 332 kts 264°
2026-05-08 20:28 48.92883 2.68520 12786 ft 313 kts 264°
2026-05-08 20:28 48.92699 2.65308 12566 ft 298 kts 264°
2026-05-08 20:28 48.92529 2.62281 12313 ft 286 kts 264°
2026-05-08 20:28 48.92366 2.59327 12052 ft 276 kts 264°
2026-05-08 20:29 48.92210 2.56475 11791 ft 266 kts 264°
2026-05-08 20:29 48.92059 2.53702 11487 ft 260 kts 264°
2026-05-08 20:29 48.91908 2.50966 11122 ft 261 kts 264°
2026-05-08 20:29 48.91757 2.48219 10742 ft 260 kts 264°
2026-05-08 20:30 48.91606 2.45478 10375 ft 260 kts 264°
2026-05-08 20:30 48.91454 2.42745 9955 ft 260 kts 263°
2026-05-08 20:30 48.91301 2.40004 9501 ft 260 kts 264°
2026-05-08 20:30 48.91150 2.37303 9065 ft 260 kts 263°
2026-05-08 20:31 48.90995 2.34562 8617 ft 260 kts 263°
2026-05-08 20:31 48.90841 2.31827 8207 ft 258 kts 263°
2026-05-08 20:31 48.90689 2.29139 7863 ft 252 kts 264°
2026-05-08 20:31 48.90541 2.26532 7487 ft 244 kts 263°
2026-05-08 20:32 48.90396 2.23981 7110 ft 242 kts 264°
2026-05-08 20:32 48.90250 2.21429 6724 ft 242 kts 264°
2026-05-08 20:32 48.90104 2.18885 6353 ft 242 kts 264°
2026-05-08 20:32 48.89956 2.16335 6107 ft 244 kts 264°
2026-05-08 20:33 48.89811 2.13828 6083 ft 246 kts 264°
2026-05-08 20:33 48.89662 2.11242 6086 ft 246 kts 264°
2026-05-08 20:33 48.89555 2.08652 6070 ft 246 kts 272°
2026-05-08 20:33 48.90061 2.06212 6072 ft 245 kts 304°
2026-05-08 20:34 48.91320 2.04514 6075 ft 245 kts 335°
2026-05-08 20:34 48.92954 2.04016 5934 ft 240 kts
2026-05-08 20:34 48.95551 2.06684 5179 ft 233 kts 59°
2026-05-08 20:35 48.96363 2.08809 5027 ft 233 kts 63°
2026-05-08 20:35 48.96857 2.11119 4999 ft 232 kts 81°
2026-05-08 20:35 48.97063 2.13545 5009 ft 231 kts 84°
2026-05-08 20:35 48.97217 2.15986 5002 ft 233 kts 85°
2026-05-08 20:36 48.97344 2.18427 4978 ft 227 kts 85°
2026-05-08 20:36 48.97460 2.20749 4859 ft 213 kts 86°
2026-05-08 20:36 48.97568 2.22954 4604 ft 204 kts 85°
2026-05-08 20:36 48.97673 2.25071 4348 ft 196 kts 85°
2026-05-08 20:37 48.97774 2.27091 4091 ft 188 kts 85°
2026-05-08 20:37 48.97872 2.29042 3843 ft 183 kts 85°
2026-05-08 20:37 48.97970 2.30974 3611 ft 184 kts 85°
2026-05-08 20:37 48.98067 2.32912 3366 ft 182 kts 84°
2026-05-08 20:38 48.98162 2.34788 3127 ft 180 kts 84°
2026-05-08 20:38 48.98258 2.36668 2884 ft 174 kts 84°
2026-05-08 20:38 48.98348 2.38435 2661 ft 161 kts 84°
2026-05-08 20:38 48.98432 2.40087 2495 ft 154 kts 84°
2026-05-08 20:39 48.98516 2.41710 2268 ft 155 kts 84°
2026-05-08 20:39 48.98601 2.43347 2054 ft 156 kts 84°
2026-05-08 20:39 48.98683 2.44950 1838 ft 147 kts 84°
2026-05-08 20:39 48.98760 2.46441 1650 ft 137 kts 84°
2026-05-08 20:40 48.98835 2.47869 1467 ft 135 kts 84°
2026-05-08 20:40 48.98910 2.49303 1304 ft 137 kts 84°
2026-05-08 20:40 48.98985 2.50738 1110 ft 137 kts 84°
2026-05-08 20:40 48.99060 2.52144 945 ft 134 kts 84°
2026-05-08 20:41 48.99128 2.53569 745 ft 135 kts 84°
2026-05-08 20:41 48.99205 2.54989 578 ft 133 kts 84°
2026-05-08 20:41 48.99283 2.56400 431 ft 135 kts 84°
2026-05-08 20:41 48.99360 2.57784 354 ft 122 kts 85°
2026-05-08 20:42 48.99418 2.58842 356 ft 78 kts 85°
2026-05-08 20:42 48.99486 2.59341 354 ft 23 kts 60°
2026-05-08 20:42 48.99545 2.59518 356 ft 16 kts 64°
2026-05-08 20:42 48.99578 2.59622 353 ft 5 kts 64°
2026-05-08 20:43 48.99592 2.59655 363 ft 0 kts 50°
2026-05-08 20:43 48.99598 2.59665 360 ft 8 kts 45°
2026-05-08 20:43 48.99674 2.59689 357 ft 15 kts 355°
2026-05-08 20:44 48.99798 2.59674 354 ft 21 kts 355°
2026-05-08 20:44 48.99896 2.59663 356 ft 11 kts 355°
2026-05-08 20:44 48.99933 2.59658 353 ft 0 kts 355°
2026-05-08 20:45 48.99954 2.59656 357 ft 9 kts 355°
2026-05-08 20:45 49.00017 2.59648 360 ft 17 kts 355°
2026-05-08 20:45 49.00204 2.59626 357 ft 21 kts 356°
2026-05-08 20:45 49.00298 2.59616 360 ft 12 kts 355°
2026-05-08 20:46 49.00384 2.59604 353 ft 14 kts 354°
2026-05-08 20:46 49.00500 2.59589 355 ft 19 kts 355°
2026-05-08 20:46 49.00630 2.59572 361 ft 19 kts 355°
2026-05-08 20:46 49.00757 2.59556 353 ft 18 kts 355°
2026-05-08 20:47 49.00879 2.59542 358 ft 16 kts 356°
2026-05-08 20:47 49.00986 2.59509 356 ft 16 kts 320°
2026-05-08 20:47 49.00998 2.59353 353 ft 15 kts 265°
2026-05-08 20:47 49.00989 2.59195 360 ft 16 kts 265°
2026-05-08 20:48 49.00971 2.59031 353 ft 17 kts 255°
2026-05-08 20:48 49.00947 2.58841 355 ft 20 kts 264°
2026-05-08 20:48 49.00935 2.58614 356 ft 23 kts 265°
2026-05-08 20:48 49.00921 2.58355 356 ft 26 kts 265°
2026-05-08 20:49 49.00906 2.58082 357 ft 25 kts 265°
2026-05-08 20:49 49.00892 2.57808 360 ft 27 kts 265°
2026-05-08 20:49 49.00877 2.57513 353 ft 26 kts 265°
2026-05-08 20:49 49.00862 2.57248 353 ft 27 kts 265°
2026-05-08 20:50 49.00845 2.56955 353 ft 29 kts 265°
2026-05-08 20:50 49.00832 2.56708 361 ft 22 kts 265°
2026-05-08 20:50 49.00825 2.56573 353 ft 0 kts 264°
2026-05-08 20:51 49.00824 2.56555 355 ft 4 kts 264°
2026-05-08 20:51 49.00824 2.56554 359 ft 0 kts 264°
2026-05-08 20:51 49.00823 2.56551 358 ft 0 kts 264°
2026-05-08 20:53 49.00821 2.56513 353 ft 9 kts 264°
2026-05-08 20:53 49.00790 2.56430 356 ft 7 kts 205°
2026-05-08 20:53 49.00734 2.56429 353 ft 14 kts 178°
2026-05-08 20:53 49.00662 2.56455 353 ft 10 kts 135°
2026-05-08 20:54 49.00650 2.56527 361 ft 12 kts 84°
2026-05-08 20:54 49.00661 2.56616 353 ft 5 kts 48°
2026-05-08 20:54 49.00704 2.56621 353 ft 4 kts 358°